Theta_e
292 292 292 292 293 294 295 295 297 298 298 299 300 300 299 297 297 299 296 296 296 297 298 299 298 299 300 301 302 301 302 303 305 308 305 303 302 306 310 312 313 311 311 311 310 311 312 312 313 314 311 310 308 308
291 292 291 291 292 293 294 295 297 297 298 299 299 300 300 298 296 298 297 297 296 297 298 297 298 298 299 301 302 304 304 305 304 303 303 303 303 304 310 311 310 313 311 310 310 309 312 309 309 308 307 306 305 305
291 291 291 291 292 293 294 296 297 297 298 300 300 300 300 299 296 298 297 297 296 297 297 297 297 297 298 299 300 301 302 303 305 303 305 304 305 306 309 311 311 313 312 312 312 313 311 308 306 305 305 304 303 301
291 290 291 292 293 294 296 297 297 298 300 300 300 300 300 300 296 297 297 297 297 298 299 295 297 297 298 298 301 302 301 303 304 305 304 302 305 307 309 311 310 309 308 310 312 307 306 303 302 302 301 301 301 298
290 290 291 292 294 296 297 298 299 299 299 299 299 300 300 300 297 297 297 298 297 298 297 298 298 299 300 299 300 302 303 304 305 305 299 302 305 307 306 308 306 305 305 306 305 302 306 302 299 300 299 300 297 297
290 291 292 294 295 297 298 298 298 298 299 299 298 299 300 300 297 298 297 297 298 298 300 296 299 300 301 301 302 303 303 304 305 303 301 303 306 307 308 307 301 299 299 300 300 298 300 299 297 296 298 295 293 291
291 292 294 295 297 298 298 298 298 298 299 299 300 299 299 300 297 297 297 298 297 298 299 299 298 299 302 302 301 301 302 301 304 304 303 305 306 306 305 303 297 297 296 296 295 298 300 297 294 293 294 293 291 288
292 293 295 296 296 298 299 298 300 301 301 301 300 300 300 300 297 297 299 301 298 299 300 300 301 302 303 303 305 304 304 304 305 304 305 307 307 305 298 295 294 293 295 292 293 293 294 294 292 291 290 291 289 287
293 294 296 297 299 299 298 301 302 302 302 301 300 300 299 294 295 298 300 299 298 299 299 299 299 304 301 304 305 304 303 304 301 304 304 306 299 295 295 293 291 290 290 289 290 290 290 291 291 290 288 287 287 286
294 296 296 298 297 298 300 300 302 302 301 300 298 295 296 298 298 299 297 297 297 300 301 301 301 303 302 303 303 303 302 304 306 304 302 297 294 292 290 289 288 288 287 287 288 288 287 288 288 286 284 284 284 283
296 296 297 296 297 298 300 300 300 299 299 298 298 298 299 299 297 296 298 300 300 299 296 298 302 303 301 303 304 300 304 303 305 304 306 299 295 291 287 286 286 285 285 284 283 282 283 284 285 284 282 281 280 280
296 296 292 297 296 299 300 300 300 300 300 299 299 299 299 298 299 301 299 299 297 299 299 296 300 302 301 299 303 302 301 302 301 303 300 292 290 288 286 285 284 283 282 281 280 280 279 281 281 280 280 279 279 277
295 293 296 295 297 299 299 299 299 299 299 299 297 297 298 295 298 294 302 302 301 298 300 301 302 297 298 299 301 303 303 302 301 296 291 288 287 286 284 283 282 281 280 279 279 278 277 276 276 276 274 274 274 274
292 294 296 297 299 299 299 298 298 296 296 295 293 287 289 292 289 290 294 293 292 294 296 298 300 299 299 299 300 303 301 301 300 293 285 286 285 284 283 282 281 279 278 277 275 275 274 274 274 274 274 274 273 272
291 293 296 295 294 294 294 296 295 293 290 291 290 289 288 288 287 288 290 291 292 292 295 299 299 299 296 293 297 300 296 292 290 285 283 283 283 282 282 281 280 278 273 273 275 273 274 274 273 273 273 273 272 272
292 292 293 293 293 293 293 292 291 291 289 288 287 290 290 285 285 285 286 287 290 290 292 295 293 292 290 288 289 287 292 286 282 281 281 281 278 278 278 279 276 276 275 275 274 274 273 272 272 272 272 272 272 271
296 292 292 293 293 293 292 291 290 290 290 288 286 286 288 287 286 284 285 287 288 291 293 295 292 293 293 289 287 286 283 281 282 282 279 277 279 278 276 277 277 277 276 275 274 273 273 273 273 272 272 272 271 271
292 292 293 294 293 293 292 291 289 289 288 287 285 287 285 285 284 285 286 287 290 292 291 290 290 288 284 287 283 282 281 282 281 280 278 277 277 278 278 276 277 276 275 276 275 275 274 273 272 272 272 271 271 270
292 293 294 294 293 292 291 290 289 289 288 287 286 286 287 285 284 283 285 285 285 286 287 286 285 285 284 284 282 280 276 277 280 278 277 278 279 279 279 279 278 277 276 276 276 276 275 275 274 274 273 272 271 270
293 293 294 294 293 291 291 290 289 288 288 288 286 286 286 285 283 282 282 284 284 283 282 281 280 280 281 281 280 280 277 279 279 279 277 278 280 279 279 278 278 278 277 277 277 276 276 275 275 275 274 273 272 271
294 294 294 293 292 292 289 289 289 288 288 289 287 287 284 283 282 281 281 281 281 281 280 279 278 278 278 279 280 280 281 281 276 276 276 278 280 280 280 279 278 278 277 277 276 275 275 274 273 273 273 272 271 270
294 294 292 292 290 290 290 289 289 288 290 290 290 289 283 280 280 281 281 279 279 278 276 275 272 272 278 277 278 279 279 279 279 279 279 279 277 277 277 278 277 276 276 276 275 275 274 273 272 271 270 270 270 270
294 293 293 290 286 286 289 291 291 291 288 289 288 286 283 280 282 282 277 280 278 276 277 276 278 278 277 278 279 278 279 278 277 277 277 277 276 276 276 276 276 275 274 274 274 273 273 273 272 271 270 270 270 269
290 287 285 284 286 284 283 285 290 290 288 287 286 283 282 281 281 277 278 276 276 279 277 278 279 276 277 276 275 275 277 277 276 276 276 276 275 275 275 274 274 275 274 274 273 273 272 272 271 271 270 270 270 270
284 281 281 281 282 282 282 281 284 286 282 283 280 280 280 282 277 275 275 280 277 274 278 281 279 276 273 269 273 274 275 275 273 272 273 275 274 273 272 272 272 273 273 273 272 272 271 271 271 271 271 271 270 269
279 277 282 280 281 285 285 283 281 281 278 277 278 281 278 274 274 278 280 274 271 275 272 273 275 276 275 274 272 272 273 275 274 271 271 272 273 273 271 270 270 270 271 272 271 271 271 270 270 270 269 269 269 269
277 277 282 285 287 286 281 281 283 280 276 277 276 275 273 271 271 277 279 276 274 276 277 278 276 274 273 272 272 272 273 273 273 271 270 270 270 271 272 270 269 269 270 271 271 271 270 269 269 269 268 268 268 268
279 280 278 276 277 279 275 274 273 274 275 279 276 273 272 273 276 276 273 275 275 276 276 275 275 274 273 273 272 272 271 271 271 270 270 269 269 268 268 268 268 268 268 269 270 270 270 269 269 269 269 268 268 268
274 277 276 272 273 273 274 273 272 275 277 275 270 271 274 276 273 275 275 275 275 275 273 273 273 273 272 271 271 271 271 272 270 265 264 262 267 268 268 268 268 268 268 267 267 267 268 268 269 268 268 268 268 267
276 276 272 268 271 275 276 271 269 266 273 273 276 276 276 274 275 276 275 275 274 274 274 273 273 273 272 271 268 268 268 270 271 271 262 261 267 268 268 268 267 267 268 267 267 267 267 267 267 267 267 267 267 267
278 273 271 271 274 274 272 271 275 273 266 268 264 268 270 272 275 276 277 277 275 275 274 273 273 273 272 271 270 268 266 267 268 268 268 268 267 267 266 266 266 267 266 266 266 266 266 266 266 267 267 267 266 265
270 268 270 274 275 276 272 272 267 269 265 265 267 263 265 265 267 270 274 274 274 274 273 273 273 271 271 271 271 270 270 267 267 267 267 267 266 266 265 265 265 265 265 265 266 265 265 265 265 265 265 264 264 264
269 268 269 270 271 272 270 270 271 272 269 270 272 269 266 265 267 269 272 273 274 275 274 273 272 270 269 268 268 267 267 266 266 265 265 265 265 265 265 265 264 264 264 265 265 265 264 264 264 264 264 263 263 262
Wind_Speed
23 24 23 24 26 26 26 27 27 22 21 22 17 18 21 21 21 24 7 30 14 3 6 4 12 8 0 2 2 3 4 2 1 2 2 3 2 3 3 2 3 4 4 3 3 3 6 7 1 4 4 3 4 6
24 23 24 26 29 28 28 28 26 24 23 21 18 16 17 22 22 28 6 19 26 3 3 6 18 22 14 3 1 1 3 0 2 0 2 2 2 2 2 3 3 3 2 4 5 3 5 8 10 6 5 4 4 4
23 23 24 28 29 30 29 29 27 27 24 21 20 18 18 23 24 31 12 20 16 2 4 7 9 29 28 26 21 4 1 4 3 3 2 1 1 1 1 2 1 1 5 1 2 6 11 9 9 9 8 6 7 7
23 24 25 28 30 29 31 30 28 26 22 20 18 20 22 25 25 30 19 22 14 2 3 5 11 9 18 24 27 21 11 7 1 4 3 1 1 0 2 2 2 4 5 4 5 6 10 9 9 7 9 8 10 10
23 25 28 30 30 32 30 30 25 23 24 24 22 18 23 25 29 29 26 24 24 4 2 4 11 23 20 20 27 24 16 8 2 1 1 2 2 1 1 2 3 5 4 1 2 7 4 7 7 10 11 11 10 10
24 26 29 30 30 30 26 21 22 23 22 24 27 24 21 26 31 21 3 21 28 21 2 3 4 4 3 19 19 12 8 3 1 2 3 2 3 2 1 2 3 8 9 9 3 3 9 8 12 10 11 12 12 12
25 27 28 28 27 26 26 30 33 32 30 28 27 27 25 29 37 7 4 6 35 21 2 3 4 3 5 5 3 3 5 2 3 2 2 2 1 3 1 2 4 7 7 8 11 6 7 11 6 9 10 12 14 14
24 25 25 24 24 23 26 33 33 32 28 29 30 31 29 36 28 11 6 4 34 8 3 2 3 3 2 2 3 2 3 2 2 3 2 2 2 2 3 6 7 7 5 11 10 10 9 8 10 10 11 8 8 9
23 21 20 19 14 17 23 19 18 15 28 30 33 32 21 9 4 9 2 31 16 4 4 2 2 2 4 2 2 2 2 2 0 3 3 3 2 3 3 7 7 8 5 6 5 8 9 10 9 9 9 7 7 7
18 15 13 8 7 9 13 13 19 24 33 39 27 6 3 12 34 25 5 2 1 1 2 2 2 2 2 3 2 3 1 2 2 2 3 3 2 7 8 8 7 7 8 7 3 5 7 7 6 8 8 6 7 7
12 11 5 4 1 2 13 22 26 29 26 5 2 3 29 30 8 1 3 3 3 3 2 3 3 1 2 1 2 1 2 2 3 3 2 2 2 4 7 9 7 7 8 8 8 6 6 5 5 6 7 9 9 9
8 4 3 4 3 7 9 14 15 11 4 10 15 15 7 3 2 3 3 4 3 5 1 2 2 3 1 2 1 3 3 3 3 3 3 2 3 8 8 7 7 6 8 8 9 7 8 8 9 8 8 9 10 11
5 3 7 5 5 17 13 9 18 37 23 13 6 4 2 3 4 4 5 2 3 2 2 0 2 3 1 2 0 1 3 2 1 3 2 2 6 6 6 6 7 9 10 10 10 10 11 12 13 11 10 12 16 17
6 11 16 17 22 22 25 18 17 6 5 3 3 5 3 3 2 1 1 2 1 1 3 2 2 2 0 2 1 2 1 2 2 2 2 2 6 6 6 6 6 7 6 7 7 11 11 11 12 15 15 15 17 16
10 12 17 16 15 14 12 11 7 6 6 4 4 4 3 1 3 2 2 2 3 2 2 1 2 2 2 3 3 2 4 3 3 2 2 4 5 5 5 7 6 5 3 4 9 10 12 13 13 14 15 17 19 18
11 10 11 11 12 12 13 12 9 5 4 3 6 4 3 4 3 3 3 2 2 2 1 1 3 3 3 2 5 2 2 1 1 2 2 4 3 4 5 6 7 10 11 12 12 12 13 14 13 14 18 17 16 15
7 4 19 20 16 11 5 5 6 6 4 4 3 2 3 3 1 2 1 2 2 1 1 2 4 1 2 3 3 3 1 2 3 4 2 3 4 5 5 9 11 13 13 14 15 15 13 14 13 13 13 13 15 16
9 18 13 13 14 10 6 8 4 4 6 4 3 3 2 4 2 3 3 4 2 2 2 3 3 5 3 2 1 1 3 5 5 4 3 4 7 10 11 10 13 14 15 15 15 16 15 15 12 11 14 13 12 12
20 14 10 10 7 6 4 5 5 4 3 2 1 1 4 2 4 4 6 5 6 7 3 3 4 3 2 2 4 3 1 2 4 2 2 7 11 11 10 10 12 13 13 13 11 9 11 10 11 11 11 10 10 10
16 14 11 10 7 5 4 3 5 4 3 2 3 4 3 2 2 4 7 7 5 3 5 4 3 2 2 4 3 2 2 3 4 3 2 2 8 12 10 12 13 15 14 13 13 13 12 11 11 11 10 9 11 9
15 12 9 11 7 10 4 3 3 3 4 3 4 2 3 4 4 4 4 5 5 3 3 2 2 4 8 9 12 11 8 7 2 2 3 3 8 10 7 11 11 10 11 11 9 9 9 9 8 9 10 11 12 13
5 5 4 7 4 4 4 5 4 4 3 3 2 2 3 2 3 3 2 6 3 3 2 2 0 1 6 6 10 17 15 17 15 14 12 11 3 5 7 11 12 9 10 10 10 10 8 8 9 10 11 14 13 13
5 4 4 5 5 5 1 0 3 3 3 3 2 3 3 2 2 2 3 3 2 2 5 5 9 17 14 17 18 18 17 17 11 11 12 13 13 13 14 11 11 12 9 8 8 8 9 10 10 10 9 11 12 11
5 5 4 3 4 1 2 3 2 3 3 3 3 3 1 2 2 3 3 2 1 2 3 4 9 5 10 12 6 9 10 17 16 14 9 13 10 10 12 12 11 8 7 9 8 7 7 7 9 10 11 14 11 11
6 7 5 4 3 5 4 3 3 4 3 2 4 2 1 2 3 3 2 2 2 1 1 10 7 5 4 1 7 11 12 11 12 9 11 7 12 14 13 14 14 8 8 8 8 8 8 8 8 10 9 10 12 11
6 4 3 1 2 4 3 3 3 3 3 3 1 1 2 3 4 2 2 3 2 1 2 6 7 4 4 6 3 4 6 9 11 11 8 7 6 8 11 8 6 7 6 4 6 8 8 6 8 9 9 8 8 9
4 2 2 3 1 3 4 3 3 4 4 4 3 2 3 4 2 2 3 3 2 9 13 16 15 12 10 11 10 10 9 8 8 12 10 10 9 7 11 10 7 5 4 2 7 7 6 6 6 5 5 8 6 5
2 3 4 4 4 4 4 3 3 2 2 0 3 4 5 6 4 3 2 16 22 21 20 19 18 18 17 13 10 10 12 11 12 13 14 13 12 11 10 8 8 6 3 3 4 6 7 6 5 6 8 7 5 2
2 1 4 5 5 5 3 2 2 1 1 2 4 2 2 2 1 6 15 23 21 22 21 21 20 19 17 13 9 6 5 9 13 3 2 2 2 5 5 4 5 4 4 7 6 5 4 5 5 5 4 5 5 4
1 2 4 3 4 4 3 2 0 2 2 4 4 7 6 5 10 20 23 20 19 19 18 18 17 14 14 12 11 9 8 6 4 6 5 4 6 8 5 3 2 3 5 4 4 5 4 4 3 3 3 3 1 2
2 3 4 4 3 2 1 2 9 6 3 5 3 4 3 3 7 8 11 16 19 19 18 16 13 11 15 13 10 9 6 5 5 5 6 9 7 3 1 1 2 1 2 2 3 3 2 1 3 3 3 4 3 1
3 3 4 4 2 1 3 1 2 3 1 3 1 2 3 3 2 1 6 14 17 17 16 16 15 11 9 8 8 6 4 10 8 5 5 4 3 2 2 1 1 1 1 1 1 2 2 2 2 3 3 1 2 3
3 4 4 4 2 1 3 4 3 2 3 2 0 2 2 4 4 6 5 6 13 16 20 16 11 11 9 7 7 8 7 5 5 4 4 3 2 3 2 1 1 1 1 2 2 1 2 2 1 2 2 2 4 6
Wind_Direction
269 272 277 279 282 287 291 288 293 290 292 282 272 251 233 224 216 197 179 191 183 230 256 257 237 240 286 182 176 300 350 333 47 196 194 251 207 268 313 36 126 190 143 165 154 190 249 349 235 79 156 213 29 5
267 273 278 276 284 288 289 288 289 289 286 275 268 261 235 216 209 195 171 194 203 230 290 278 267 264 246 207 150 210 279 133 213 219 278 319 315 339 88 304 186 215 141 175 178 193 94 31 77 67 98 89 50 36
267 273 274 277 282 288 286 287 284 285 278 273 262 248 229 213 206 196 182 178 182 209 271 241 247 257 250 241 225 203 223 271 253 186 246 257 273 134 339 267 284 63 7 358 109 149 107 70 44 50 44 64 69 60
268 273 272 277 285 285 286 283 282 275 268 266 259 242 220 209 204 193 184 184 181 159 251 275 262 248 258 232 212 202 212 257 207 261 227 163 223 133 209 335 353 359 4 356 82 37 87 50 44 39 38 32 84 67
270 271 275 283 285 288 285 282 271 267 265 260 254 241 214 204 194 192 196 198 194 199 244 280 304 287 245 212 192 191 197 227 266 144 57 241 251 315 355 139 51 2 359 23 83 302 63 68 39 41 37 71 51 59
269 272 281 285 289 287 281 266 274 279 269 250 239 230 216 203 180 168 177 214 207 208 306 306 276 280 214 187 184 195 197 181 174 166 221 277 302 102 325 74 65 36 57 39 49 252 109 105 56 44 61 66 62 59
269 278 283 288 287 281 273 271 285 277 263 242 222 215 205 193 167 168 186 201 192 187 234 276 290 275 228 132 141 129 146 147 126 168 213 249 217 27 356 94 52 31 44 31 11 348 68 52 68 45 52 67 72 73
274 281 287 287 286 281 290 295 284 263 243 220 201 196 192 179 162 201 242 208 161 142 205 246 268 325 18 135 137 156 137 124 161 177 219 217 115 71 84 95 54 30 38 27 20 29 43 63 79 63 53 55 60 57
278 284 283 289 283 292 308 312 302 236 190 179 174 172 143 127 120 159 135 147 151 153 184 211 227 234 344 109 123 88 109 147 279 188 216 145 43 56 75 95 74 52 44 359 22 35 30 36 43 60 60 53 64 53
281 275 279 279 298 303 16 45 93 127 140 136 123 85 124 150 132 123 82 94 128 265 250 244 195 209 228 198 123 126 128 159 192 191 93 71 79 86 84 85 74 61 46 18 25 28 17 22 59 63 62 53 56 55
273 266 243 271 284 307 76 89 95 106 113 71 103 114 113 119 101 119 132 156 135 203 211 232 162 155 148 123 113 158 152 156 185 207 171 99 104 102 97 78 64 64 65 58 69 52 34 17 36 63 58 59 63 65
256 217 259 192 190 171 126 109 103 98 69 112 106 96 93 114 124 127 129 151 178 204 196 152 169 144 63 118 160 158 156 172 181 148 92 98 93 101 99 82 68 67 69 65 57 52 38 43 48 64 63 66 72 81
167 88 121 100 179 163 145 163 121 111 109 97 53 62 51 2 72 119 161 171 135 10 27 78 79 122 63 13 134 135 141 182 144 51 71 66 113 91 106 101 78 70 69 66 63 62 62 60 61 70 72 76 88 84
121 128 115 87 118 133 127 126 124 93 78 70 77 56 75 22 50 6 27 80 35 23 17 24 76 100 62 81 328 88 17 121 107 118 182 88 97 97 93 85 82 70 68 74 60 67 60 62 63 74 81 90 92 82
116 125 130 116 120 127 139 150 166 84 58 62 52 68 72 63 27 330 333 71 7 343 352 52 46 55 18 67 12 81 41 63 40 145 95 105 96 96 98 96 93 93 70 70 83 78 73 75 71 67 81 94 99 100
119 104 127 119 112 121 110 99 68 75 62 60 39 54 105 67 359 9 6 13 354 344 340 9 112 62 23 79 51 20 46 119 216 99 98 105 92 86 94 99 104 113 105 99 99 97 94 82 76 76 79 81 86 94
141 123 122 102 99 101 94 74 56 48 62 53 30 358 46 93 67 298 332 311 288 294 63 63 58 52 66 56 48 20 63 118 106 103 88 97 114 114 109 108 116 121 119 116 113 109 107 107 99 91 81 83 89 92
131 131 116 113 119 88 62 44 78 69 65 37 65 354 29 39 346 6 342 344 16 55 39 60 37 47 51 57 57 78 72 82 74 83 96 102 105 114 124 121 127 128 128 132 132 131 130 125 114 116 118 114 102 92
137 125 101 94 104 91 72 46 62 89 81 95 63 15 62 59 29 24 19 4 45 47 78 52 59 43 43 63 104 109 112 105 117 87 78 109 124 123 121 126 138 133 136 145 150 160 159 155 149 146 139 129 121 117
115 95 94 74 89 87 80 52 75 83 84 88 43 27 49 46 354 23 30 30 50 60 50 44 46 9 39 54 46 83 124 124 122 110 81 81 123 130 131 133 129 131 126 122 115 113 103 91 113 134 140 136 133 131
90 82 71 66 51 65 92 97 68 104 135 106 156 107 106 68 44 27 30 8 52 36 73 54 46 57 52 54 63 73 76 133 115 135 145 106 109 110 115 164 140 137 125 121 108 110 116 110 122 123 129 133 136 133
87 77 89 53 75 60 71 28 115 137 92 121 162 93 84 61 37 25 54 36 60 12 60 121 191 70 69 52 46 77 85 82 83 83 90 90 58 58 67 97 104 93 110 121 129 127 129 131 136 132 129 129 134 136
96 61 56 55 69 61 165 133 85 122 102 149 83 65 37 59 88 88 73 61 76 20 96 96 92 88 79 74 77 77 90 93 80 88 89 91 92 86 87 103 117 112 100 108 124 121 125 146 149 146 145 150 144 137
59 56 59 76 74 129 42 25 63 71 73 71 69 72 41 123 105 63 71 66 247 148 93 122 115 91 74 64 55 46 66 98 86 78 101 113 102 95 99 92 92 103 128 139 132 129 136 141 164 151 145 156 153 160
72 343 71 10 359 77 70 37 40 69 88 79 82 29 275 88 80 80 138 149 151 207 183 176 164 102 119 123 72 68 68 108 101 82 60 104 132 118 102 93 79 77 157 141 139 135 128 133 134 146 155 167 157 157
68 305 82 172 315 104 154 103 126 128 102 76 158 183 59 78 71 107 142 167 159 106 131 135 130 110 83 99 102 62 54 136 121 95 64 69 93 163 154 135 101 63 71 178 161 152 147 142 136 140 138 139 157 163
71 322 329 7 348 77 62 57 59 92 98 137 186 88 85 80 152 201 118 114 118 116 115 143 138 125 128 121 105 97 103 124 104 110 99 81 76 81 164 137 118 96 74 82 182 181 171 168 144 135 141 147 126 144
121 41 92 315 55 22 102 59 72 124 187 133 78 62 121 164 168 168 141 132 125 122 118 122 126 127 125 121 117 121 112 113 118 116 102 86 79 77 87 96 101 89 71 77 97 154 179 177 161 168 185 186 178 176
50 357 80 35 42 40 48 111 182 306 294 98 108 120 127 75 140 118 133 139 138 131 119 118 121 125 122 119 113 113 136 175 166 144 182 190 135 107 97 89 77 86 86 81 82 89 123 121 130 136 137 174 190 184
288 82 86 60 65 29 344 109 219 287 22 104 104 103 81 53 83 135 139 139 138 141 145 145 150 152 145 136 115 95 94 95 139 168 150 168 156 147 166 154 88 100 106 144 97 97 100 100 114 120 156 152 155 121
109 78 74 62 85 13 140 109 75 66 46 51 25 83 106 118 69 103 159 168 154 147 141 140 152 176 183 176 167 141 123 123 119 123 123 136 149 164 174 196 207 174 125 99 101 104 88 47 59 79 121 129 137 123
43 93 121 106 121 257 12 47 93 96 49 69 340 50 22 63 88 273 138 165 161 156 157 161 153 147 161 173 180 187 187 156 157 155 160 160 162 170 176 166 126 207 249 229 150 82 42 29 70 92 100 70 353 344
56 43 65 92 79 325 283 86 46 68 34 66 27 145 152 135 167 203 166 186 191 182 184 179 165 153 145 137 138 136 134 136 149 159 175 186 192 190 207 247 291 325 160 138 107 87 73 21 5 336 338 346 333 328